Location: Unspecified
(0.0000°N, 0.0000°E)
Time: 17:20:15
(UTC+02:00)

Cosmos 1536 - Visible Passes

Search period start: 23 August 2014 00:00
Search period end: 02 September 2014 00:00
Orbit: 551 x 568 km, 82.5° (Epoch: 23 August)

Date Brightness Start Highest point End Pass type
(mag) Time Alt. Az. Time Alt. Az. Time Alt. Az.
27 Aug 6.6 06:39:16 10° E 06:39:38 10° E 06:40:00 10° E visible
28 Aug 6.3 06:36:26 10° ENE 06:38:19 13° E 06:40:12 10° ESE visible
29 Aug 6.0 06:34:27 10° NE 06:37:00 16° E 06:39:33 10° SE visible
30 Aug 5.7 06:32:41 10° NE 06:35:41 20° E 06:38:42 10° SE visible
31 Aug 5.2 06:31:01 10° NNE 06:34:22 25° E 06:37:43 10° SE visible
01 Sep 4.8 06:29:26 10° NNE 06:33:03 31° E 06:36:40 10° SSE visible
